�N����,����,�~����,�C��,���x,�C��,����,���ϕ���,�ő�u�ԕ���,�ő厞����,���˗�,�I�_���x,�n�����x
"23/06/01","01:00",0.0,14.3,79.0,1007.8,328.9,2.6,4.5,332.5,0.00,10.8,19.1
"23/06/01","02:00",0.0,13.6,82.1,1008.3,305.6,1.7,3.6,323.5,0.00,10.6,18.7
"23/06/01","03:00",0.0,12.6,85.8,1008.3,290.6,1.3,3.4,312.9,0.00,10.3,18.6
"23/06/01","04:00",0.0,12.4,89.5,1007.6,295.8,2.0,2.4,313.8,0.00,10.8,18.3
"23/06/01","05:00",0.0,12.0,91.2,1007.6,294.0,1.3,2.5,324.7,0.00,10.7,17.8
"23/06/01","06:00",0.0,12.4,92.7,1007.8,298.5,0.8,2.8,319.3,0.00,11.3,17.9
"23/06/01","07:00",0.0,15.5,93.3,1007.6,309.8,1.0,2.2,313.9,0.19,14.5,17.7
"23/06/01","08:00",0.0,18.7,85.3,1007.8,300.8,1.1,2.5,340.7,0.48,16.2,17.7
"23/06/01","09:00",0.0,21.8,76.5,1007.4,311.4,0.8,2.6,247.9,1.01,17.5,17.8
"23/06/01","10:00",0.0,23.0,73.2,1006.2,185.8,1.5,3.9,194.5,1.70,18.0,18.1
"23/06/01","11:00",0.0,25.4,67.1,1005.2,133.3,1.1,2.9,132.3,1.61,18.9,18.6
"23/06/01","12:00",0.0,26.1,65.0,1005.2,114.2,1.2,3.5,126.4,1.59,19.0,19.0
"23/06/01","13:00",0.0,25.8,65.5,1004.3,95.0,1.2,3.7,110.7,1.40,18.9,19.2
"23/06/01","14:00",0.0,25.0,68.3,1004.1,84.7,1.3,3.7,91.8,0.70,18.8,19.4
"23/06/01","15:00",0.0,24.4,72.1,1004.3,64.0,0.6,3.1,15.0,0.19,19.1,19.6
"23/06/01","16:00",0.0,24.9,71.2,1002.9,176.7,2.0,3.6,157.9,0.36,19.4,19.6
"23/06/01","17:00",0.0,25.2,71.8,1002.6,103.8,1.1,3.6,216.7,0.48,19.8,19.7
"23/06/01","18:00",0.0,24.2,74.4,1002.4,82.8,1.3,3.5,23.3,0.09,19.4,19.7
"23/06/01","19:00",0.0,23.6,76.3,1003.4,93.7,1.0,3.9,109.8,0.00,19.2,19.7
"23/06/01","20:00",0.0,23.1,77.9,1003.6,358.2,0.6,2.5,55.1,0.00,19.1,19.9
"23/06/01","21:00",0.0,22.7,79.6,1003.6,357.0,0.3,1.9,28.0,0.00,19.0,19.8
"23/06/01","22:00",0.0,22.4,81.4,1003.4,350.3,0.5,2.0,342.8,0.00,19.1,19.9
"23/06/01","23:00",3.4,22.0,84.3,1003.1,180.8,0.7,2.4,148.9,0.00,19.3,19.8
"23/06/01","24:00",2.6,21.0,90.1,1003.1,297.6,1.0,1.6,294.9,0.00,19.4,19.6
"23/06/02","01:00",1.0,20.6,92.7,1002.4,280.6,0.7,1.8,266.9,0.00,19.4,19.7
"23/06/02","02:00",1.6,20.5,94.0,1001.9,323.1,1.2,2.0,342.7,0.00,19.5,19.6
"23/06/02","03:00",6.4,20.4,94.8,1001.2,276.2,0.6,1.6,225.6,0.00,19.6,19.8
"23/06/02","04:00",0.4,20.4,95.4,1000.0,332.5,0.7,1.2,335.0,0.00,19.7,19.6
"23/06/02","05:00",1.0,20.3,95.9,999.6,258.2,0.3,2.4,338.5,0.00,19.7,19.4
"23/06/02","06:00",4.2,20.3,96.2,999.3,266.6,0.3,1.4,337.1,0.00,19.7,19.7
"23/06/02","07:00",4.2,20.5,96.5,998.6,297.6,0.7,1.4,317.1,0.00,20.0,19.7
"23/06/02","08:00",4.8,20.7,96.6,998.4,327.4,0.8,2.0,334.0,0.00,20.2,19.6
"23/06/02","09:00",3.2,20.7,96.8,997.4,320.6,0.6,1.2,334.4,0.03,20.2,19.6
"23/06/02","10:00",2.4,20.9,96.9,997.0,286.8,0.5,1.3,3.1,0.01,20.4,19.8
"23/06/02","11:00",8.8,20.9,97.1,996.3,207.3,1.3,2.1,224.0,0.00,20.5,19.6
"23/06/02","12:00",11.8,21.0,97.2,995.1,283.7,0.7,1.9,216.3,0.00,20.6,19.6
"23/06/02","13:00",10.0,21.1,97.4,993.9,137.3,0.5,3.4,334.5,0.00,20.7,19.7
"23/06/02","14:00",7.8,21.0,97.5,993.7,205.9,0.7,1.8,203.6,0.00,20.6,19.9
"23/06/02","15:00",4.8,21.1,97.6,994.4,155.9,0.8,2.0,135.9,0.01,20.7,19.7
"23/06/02","16:00",2.8,21.4,97.6,994.1,240.2,0.6,1.6,132.2,0.14,21.0,19.8
"23/06/02","17:00",2.4,21.5,97.6,993.7,142.8,0.7,2.1,126.0,0.41,21.1,19.8
"23/06/02","18:00",2.2,21.5,97.7,993.9,343.4,0.1,2.0,186.8,0.13,21.2,20.0
"23/06/02","19:00",3.4,21.3,97.8,994.4,185.4,0.6,1.3,186.5,0.02,21.0,19.9
"23/06/02","20:00",2.6,21.2,97.8,994.8,335.8,0.6,1.3,340.1,0.00,20.9,20.0
"23/06/02","21:00",1.2,21.0,97.9,995.1,202.1,0.2,1.4,330.7,0.00,20.7,20.2
"23/06/02","22:00",0.6,21.0,98.0,995.6,338.3,1.1,1.9,351.6,0.00,20.7,19.9
"23/06/02","23:00",1.4,20.1,98.0,996.0,327.8,1.2,2.9,328.9,0.00,19.8,19.9
"23/06/02","24:00",0.6,19.6,98.3,996.0,338.7,1.0,1.8,327.0,0.00,19.4,20.2
"23/06/03","01:00",0.0,19.2,98.4,995.8,312.7,0.8,2.4,351.0,0.00,19.0,19.9
"23/06/03","02:00",0.0,19.0,98.0,995.8,326.5,0.8,1.7,341.4,0.00,18.7,20.1
"23/06/03","03:00",0.0,18.5,98.0,995.6,286.6,0.8,2.2,340.8,0.00,18.2,19.8
"23/06/03","04:00",0.0,18.1,98.1,996.3,333.3,1.1,2.5,332.4,0.00,17.8,19.8
"23/06/03","05:00",0.0,17.7,98.2,996.5,325.9,1.2,3.1,340.9,0.00,17.5,19.6
"23/06/03","06:00",0.0,17.5,98.3,997.0,326.2,1.5,2.4,305.7,0.00,17.3,19.6
"23/06/03","07:00",0.0,17.9,97.9,997.2,327.7,1.6,2.8,340.7,0.10,17.6,19.7
"23/06/03","08:00",0.0,18.1,95.9,997.2,332.0,2.1,4.4,2.2,0.70,17.5,19.7
"23/06/03","09:00",0.0,21.9,72.9,997.2,315.8,1.7,5.9,344.3,1.78,16.9,19.5
"23/06/03","10:00",0.0,20.6,70.2,997.4,1.0,3.2,8.1,343.0,1.44,15.0,19.7
"23/06/03","11:00",0.0,22.4,64.0,996.5,348.4,4.1,11.8,328.3,2.82,15.3,19.7
"23/06/03","12:00",0.0,22.7,61.6,996.5,353.9,3.7,10.4,25.5,3.48,15.0,19.8
"23/06/03","13:00",0.0,23.0,58.2,996.7,334.3,4.1,10.3,346.4,3.63,14.4,20.0
"23/06/03","14:00",0.0,23.6,56.3,996.3,351.1,3.5,9.4,31.8,3.55,14.4,20.2
"23/06/03","15:00",0.0,23.5,53.5,996.7,353.0,3.5,9.1,32.5,3.19,13.6,20.5
"23/06/03","16:00",0.0,23.4,54.4,997.7,355.0,3.2,9.5,352.1,2.63,13.7,20.4
"23/06/03","17:00",0.0,22.0,56.0,998.4,352.8,3.2,8.8,319.4,1.54,12.9,20.6
"23/06/03","18:00",0.0,21.4,56.5,999.1,349.8,2.8,11.4,340.9,0.61,12.4,20.6
"23/06/03","19:00",0.0,20.5,58.8,1000.3,326.4,2.5,6.3,351.6,0.02,12.2,20.6
"23/06/03","20:00",0.0,18.2,70.3,1001.2,339.2,1.5,5.2,342.6,0.01,12.7,20.3
"23/06/03","21:00",0.0,15.9,80.5,1002.6,315.4,1.1,4.0,344.2,0.00,12.6,20.2
"23/06/03","22:00",0.0,15.2,85.1,1003.8,292.4,1.3,3.2,312.3,0.00,12.8,19.8
"23/06/03","23:00",0.0,14.9,87.5,1004.8,289.2,1.8,3.7,333.2,0.00,12.9,19.2
"23/06/03","24:00",0.0,13.7,89.8,1004.3,307.4,1.7,2.0,321.3,0.00,12.1,19.3
"23/06/04","01:00",0.0,13.5,91.4,1004.5,293.8,1.1,3.6,334.4,0.00,12.2,18.9
"23/06/04","02:00",0.0,12.9,93.0,1004.8,294.1,1.7,2.1,320.0,0.00,11.8,18.7
"23/06/04","03:00",0.0,13.0,93.6,1004.3,327.7,1.6,3.4,318.4,0.00,12.0,18.6
"23/06/04","04:00",0.0,12.9,93.6,1004.3,325.5,2.5,4.2,323.2,0.00,11.9,18.3
"23/06/04","05:00",0.0,12.5,92.8,1005.2,307.0,1.7,4.3,311.8,0.00,11.4,18.2
"23/06/04","06:00",0.0,12.1,93.5,1005.5,317.1,2.5,4.1,318.7,0.00,11.1,17.9
"23/06/04","07:00",0.0,13.1,94.1,1006.2,309.4,1.8,2.7,307.6,0.09,12.2,17.6
"23/06/04","08:00",0.0,17.6,88.7,1006.9,316.0,0.5,2.4,309.2,0.77,15.8,17.6
"23/06/04","09:00",0.0,20.0,72.2,1006.0,147.0,1.0,2.0,133.0,1.64,14.9,17.6
"23/06/04","10:00",0.0,22.2,65.2,1005.2,174.8,1.5,3.3,225.5,2.48,15.4,17.9
"23/06/04","11:00",0.0,24.0,62.1,1004.3,158.3,1.6,3.5,150.8,3.10,16.3,18.3
"23/06/04","12:00",0.0,25.4,55.3,1004.3,151.6,1.8,4.8,230.5,3.45,15.8,18.8
"23/06/04","13:00",0.0,26.1,51.0,1003.1,137.9,1.2,4.0,114.2,2.44,15.2,19.4
"23/06/04","14:00",0.0,27.1,46.5,1002.9,237.2,1.0,3.5,241.9,1.58,14.7,19.6
"23/06/04","15:00",0.0,26.7,41.0,1002.4,239.0,2.3,5.2,201.3,1.76,12.4,19.8
"23/06/04","16:00",0.0,27.9,42.6,1002.4,327.1,2.0,6.8,220.7,2.13,14.1,20.1
"23/06/04","17:00",0.0,27.8,41.3,1001.7,290.1,1.7,5.2,219.0,1.72,13.5,20.4
"23/06/04","18:00",0.0,26.8,45.7,1000.8,237.5,2.2,6.3,333.2,0.76,14.2,20.5
"23/06/04","19:00",0.0,25.0,48.7,1002.2,263.7,2.5,5.1,225.7,0.23,13.5,20.7
"23/06/04","20:00",0.0,22.7,61.5,1003.1,335.3,1.8,4.8,314.3,0.02,15.0,20.2
"23/06/04","21:00",0.0,20.7,69.4,1003.6,340.8,2.1,3.2,340.2,0.00,14.9,20.4
"23/06/04","22:00",0.0,19.4,73.9,1004.8,321.9,1.2,3.1,340.6,0.00,14.7,20.1
"23/06/04","23:00",0.0,18.7,79.9,1005.5,328.1,1.3,2.4,327.0,0.00,15.2,19.8
"23/06/04","24:00",0.0,19.1,77.4,1005.5,287.6,1.6,3.6,340.1,0.00,15.1,19.7
"23/06/05","01:00",0.0,17.7,81.6,1005.5,296.0,1.6,2.7,337.6,0.00,14.6,19.5
"23/06/05","02:00",0.0,17.2,82.4,1005.5,318.8,1.3,2.6,324.3,0.00,14.2,19.2
"23/06/05","03:00",0.0,16.9,82.5,1005.2,322.1,2.3,3.9,339.1,0.00,13.9,19.3
"23/06/05","04:00",0.0,16.1,84.6,1006.0,307.3,1.1,2.8,316.9,0.00,13.5,19.0
"23/06/05","05:00",0.0,15.5,87.1,1006.0,306.0,1.0,2.1,328.4,0.00,13.4,18.9
"23/06/05","06:00",0.0,15.5,87.8,1006.0,276.7,1.0,1.8,322.1,0.00,13.5,18.6
"23/06/05","07:00",0.0,16.6,87.6,1006.2,292.3,1.0,2.0,323.4,0.10,14.6,18.5
"23/06/05","08:00",0.0,18.3,83.4,1006.4,308.8,1.1,2.0,333.3,0.38,15.5,18.3
"23/06/05","09:00",0.0,21.7,69.2,1006.2,270.1,0.5,2.0,333.4,1.04,15.9,18.5
"23/06/05","10:00",0.0,23.5,62.7,1005.0,206.5,0.5,2.0,351.2,1.44,16.0,18.7
"23/06/05","11:00",0.0,26.2,58.5,1005.2,191.9,1.6,3.5,190.9,2.63,17.5,19.1
"23/06/05","12:00",0.0,27.6,53.4,1005.0,125.7,0.8,3.4,191.2,3.00,17.3,19.3
"23/06/05","13:00",0.0,28.4,40.0,1004.8,157.6,1.1,4.2,216.4,3.55,13.5,19.8
"23/06/05","14:00",0.0,27.6,52.7,1003.6,183.7,2.0,4.7,207.1,2.50,17.1,20.3
"23/06/05","15:00",0.0,27.5,46.3,1002.6,190.2,2.5,5.4,195.1,1.40,15.0,20.5
"23/06/05","16:00",0.0,27.1,50.0,1001.9,217.6,1.3,5.1,241.1,0.98,15.8,20.8
"23/06/05","17:00",0.0,27.2,50.6,1002.4,281.9,0.7,3.7,240.3,0.87,16.1,20.8
"23/06/05","18:00",0.0,26.0,55.6,1002.6,322.7,1.8,4.2,240.7,0.43,16.5,20.8
"23/06/05","19:00",0.0,25.0,56.5,1003.4,336.3,0.8,3.3,328.8,0.19,15.8,20.6
"23/06/05","20:00",0.0,22.6,68.4,1004.1,303.8,1.3,2.6,345.9,0.03,16.5,20.7
"23/06/05","21:00",0.0,21.1,71.5,1004.5,300.2,1.6,2.9,317.2,0.00,15.8,20.5
"23/06/05","22:00",0.0,19.7,74.9,1005.0,316.9,2.2,3.3,314.4,0.00,15.2,20.4
"23/06/05","23:00",0.0,18.7,77.2,1005.5,332.4,2.1,3.3,335.3,0.00,14.7,20.2
"23/06/05","24:00",0.0,17.5,80.0,1005.7,283.5,0.8,2.8,325.4,0.00,14.1,19.9
"23/06/06","01:00",0.0,16.3,84.0,1005.7,306.9,1.1,2.4,323.4,0.00,13.6,19.6
"23/06/06","02:00",0.0,16.4,84.0,1005.5,292.6,1.0,2.4,320.1,0.00,13.7,19.3
"23/06/06","03:00",0.0,16.2,85.0,1005.2,330.0,1.3,2.2,336.2,0.00,13.7,19.2
"23/06/06","04:00",0.0,15.6,87.2,1005.0,330.3,1.3,2.1,322.3,0.00,13.5,19.0
"23/06/06","05:00",0.0,16.4,85.3,1004.8,319.6,1.2,2.1,309.0,0.00,14.0,18.8
"23/06/06","06:00",0.0,16.3,85.0,1004.8,293.0,1.1,2.0,323.9,0.00,13.8,18.8
"23/06/06","07:00",0.0,17.0,86.6,1005.2,306.4,1.1,1.8,326.9,0.03,14.8,18.5
"23/06/06","08:00",0.0,18.0,83.9,1005.2,315.0,1.1,1.7,323.0,0.15,15.3,18.6
"23/06/06","09:00",0.0,18.7,81.3,1004.5,324.2,1.2,2.0,307.4,0.25,15.5,18.7
"23/06/06","10:00",0.0,20.8,73.9,1004.1,301.7,1.1,2.1,333.3,0.63,16.0,18.6
"23/06/06","11:00",0.0,22.5,67.6,1003.6,191.9,0.5,2.1,336.9,0.99,16.3,18.8
"23/06/06","12:00",0.0,22.5,66.7,1003.4,179.3,0.7,2.1,241.8,0.84,16.0,19.1
"23/06/06","13:00",0.0,22.8,65.1,1003.4,233.7,2.0,4.2,241.2,0.81,15.9,19.1
"23/06/06","14:00",0.0,21.2,70.1,1002.6,268.2,1.2,5.1,234.4,0.54,15.6,19.3
"23/06/06","15:00",0.4,20.6,76.1,1002.6,326.2,1.6,4.0,343.4,0.94,16.3,19.2
"23/06/06","16:00",0.0,21.4,71.9,1002.2,10.5,0.5,4.0,341.0,1.06,16.2,19.5
"23/06/06","17:00",0.2,19.9,83.2,1001.5,320.8,1.5,2.5,333.2,0.23,17.0,19.4
"23/06/06","18:00",0.4,19.2,87.8,1001.7,331.5,1.7,3.2,334.0,0.41,17.2,19.4
"23/06/06","19:00",0.4,18.4,90.7,1002.2,294.5,1.3,2.4,325.3,0.01,16.9,19.6
"23/06/06","20:00",1.0,17.6,92.7,1002.4,294.1,1.6,3.5,333.4,0.00,16.4,19.2
"23/06/06","21:00",0.0,17.3,94.0,1003.1,256.6,1.2,3.4,320.8,0.00,16.4,19.3
"23/06/06","22:00",0.0,17.2,94.8,1003.1,313.8,1.5,2.6,309.6,0.00,16.4,19.2
"23/06/06","23:00",0.0,17.1,95.5,1002.6,306.2,1.1,2.6,325.7,0.00,16.4,19.2
"23/06/06","24:00",0.0,17.2,96.0,1002.4,311.2,1.2,2.2,319.4,0.00,16.6,19.1
"23/06/07","01:00",0.4,17.2,96.3,1002.2,290.0,0.8,1.8,321.0,0.00,16.6,19.0
"23/06/07","02:00",0.0,17.1,96.7,1002.2,313.3,0.7,3.5,316.7,0.00,16.6,19.1
"23/06/07","03:00",0.0,16.7,96.9,1001.7,314.8,0.3,2.6,317.1,0.00,16.2,18.9
"23/06/07","04:00",0.0,16.6,97.3,1002.6,325.1,1.5,3.5,322.7,0.00,16.2,18.8
"23/06/07","05:00",0.0,16.7,97.5,1002.6,323.0,1.5,3.2,340.8,0.00,16.3,18.9
"23/06/07","06:00",0.0,16.6,97.6,1003.4,321.9,1.8,3.2,318.2,0.00,16.3,18.7
"23/06/07","07:00",0.0,17.5,97.3,1004.3,332.5,1.5,3.5,344.8,0.17,17.1,18.5
"23/06/07","08:00",0.0,19.5,94.7,1004.3,309.2,1.3,4.1,308.1,1.24,18.7,18.6
"23/06/07","09:00",0.0,22.0,79.7,1004.5,354.8,2.1,6.0,328.0,2.00,18.4,18.8
"23/06/07","10:00",0.0,22.3,77.5,1003.8,276.7,2.1,5.5,346.4,1.79,18.2,18.8
"23/06/07","11:00",0.0,24.1,71.6,1003.4,243.0,1.5,4.5,238.3,2.25,18.7,19.2
"23/06/07","12:00",0.0,26.2,62.2,1002.4,5.3,1.6,5.0,321.0,2.80,18.4,19.7
"23/06/07","13:00",0.0,26.6,60.8,1002.6,312.0,1.7,4.1,355.3,2.64,18.5,19.8
"23/06/07","14:00",0.0,27.3,59.6,1002.6,286.8,1.3,5.2,324.3,2.76,18.8,20.2
"23/06/07","15:00",0.0,27.0,57.5,1002.9,278.6,1.5,5.2,233.3,2.12,17.9,20.5
"23/06/07","16:00",0.0,27.4,53.6,1002.4,269.9,1.3,4.2,238.7,1.41,17.2,20.9
"23/06/07","17:00",0.0,26.7,56.7,1001.9,254.5,1.7,3.6,217.6,1.16,17.4,21.0
"23/06/07","18:00",0.0,26.0,63.3,1002.4,253.4,1.3,3.9,236.1,0.48,18.5,20.9
"23/06/07","19:00",0.0,26.0,63.7,1002.9,268.3,1.3,3.4,233.3,0.30,18.6,21.0
"23/06/07","20:00",0.0,23.4,74.4,1003.6,340.3,1.6,3.6,349.7,0.05,18.6,20.9
"23/06/07","21:00",0.0,21.6,81.0,1004.5,302.4,2.0,3.3,314.0,0.00,18.2,20.9
"23/06/07","22:00",0.0,20.3,84.7,1005.7,313.8,1.7,3.5,342.0,0.00,17.7,20.7
"23/06/07","23:00",0.0,19.6,86.7,1005.7,315.2,1.3,3.6,323.5,0.00,17.4,20.5
"23/06/07","24:00",0.0,18.9,88.4,1005.7,320.5,1.1,2.5,318.5,0.00,17.0,20.1
"23/06/08","01:00",0.0,18.3,90.6,1006.0,303.2,1.3,2.4,301.0,0.00,16.8,19.9
"23/06/08","02:00",0.0,17.9,91.9,1006.2,315.6,1.1,1.9,338.0,0.00,16.6,19.7
"23/06/08","03:00",0.0,17.3,93.1,1005.7,310.2,0.2,1.9,320.3,0.00,16.2,19.5
"23/06/08","04:00",0.0,16.7,94.1,1006.0,319.8,1.1,1.9,344.0,0.00,15.8,19.3
"23/06/08","05:00",0.0,16.3,94.8,1006.7,290.4,0.8,1.9,332.1,0.00,15.5,19.1
"23/06/08","06:00",0.0,16.4,95.5,1006.7,311.6,1.3,2.0,313.9,0.00,15.7,18.9
"23/06/08","07:00",0.0,18.2,95.6,1006.4,320.9,0.6,2.0,314.6,0.16,17.5,18.7
"23/06/08","08:00",0.0,20.5,95.1,1006.2,261.3,0.3,1.4,327.3,0.52,19.7,18.7
"23/06/08","09:00",0.0,22.0,90.7,1006.0,302.3,0.6,1.8,238.8,0.97,20.4,18.8
"23/06/08","10:00",0.0,23.0,78.6,1005.5,356.4,0.7,2.0,346.3,0.57,19.1,19.1
"23/06/08","11:00",0.0,23.3,75.7,1005.5,332.5,1.0,1.7,342.1,0.48,18.8,19.3
"23/06/08","12:00",0.0,23.4,77.7,1004.1,277.6,1.0,1.9,345.7,0.41,19.3,19.3
"23/06/08","13:00",0.0,24.2,72.3,1004.1,95.5,0.8,3.1,241.7,0.68,18.9,19.5
"23/06/08","14:00",0.0,25.1,70.4,1002.6,111.1,0.6,1.9,119.1,0.75,19.4,19.8
"23/06/08","15:00",0.0,24.6,71.7,1002.6,84.3,0.8,2.4,91.1,0.45,19.2,19.9
"23/06/08","16:00",0.0,24.2,71.3,1002.4,82.5,0.8,3.5,125.2,0.42,18.7,19.9
"23/06/08","17:00",0.0,23.7,75.5,1001.7,72.5,0.6,2.7,121.0,0.19,19.2,19.8
"23/06/08","18:00",0.2,22.4,82.5,1001.7,134.5,0.8,3.9,122.0,0.09,19.3,20.0
"23/06/08","19:00",0.8,20.9,85.9,1001.7,139.9,1.0,4.8,148.9,0.00,18.5,19.9
"23/06/08","20:00",3.2,19.5,90.9,1001.5,172.7,1.0,3.1,148.1,0.00,18.0,19.9
"23/06/08","21:00",3.0,19.0,93.6,1001.9,192.2,0.6,2.5,188.7,0.00,18.0,19.7
"23/06/08","22:00",2.0,18.4,94.6,1001.5,168.9,0.7,2.2,103.8,0.00,17.6,19.7
"23/06/08","23:00",1.0,18.3,95.1,1001.0,247.2,0.5,1.7,356.3,0.00,17.5,19.5
"23/06/08","24:00",3.2,18.3,95.6,999.8,287.3,1.0,1.7,308.2,0.00,17.6,19.7
"23/06/09","01:00",1.0,18.4,96.0,998.2,267.0,1.1,2.1,254.9,0.00,17.8,19.4
"23/06/09","02:00",7.0,18.7,96.4,997.4,279.4,0.7,2.4,326.6,0.00,18.2,19.4
"23/06/09","03:00",6.8,18.9,96.7,996.7,312.7,1.1,1.9,270.8,0.00,18.4,19.3
"23/06/09","04:00",1.0,19.2,96.9,996.7,341.5,0.8,1.9,314.8,0.00,18.7,19.4
"23/06/09","05:00",0.0,19.1,97.1,996.5,337.4,0.7,1.4,314.3,0.00,18.7,19.2
"23/06/09","06:00",0.0,19.2,97.3,997.4,225.4,0.7,1.4,227.1,0.00,18.8,19.4
"23/06/09","07:00",0.0,19.8,97.4,998.6,209.8,0.8,1.6,314.2,0.02,19.4,19.3
"23/06/09","08:00",0.0,20.7,97.5,998.4,331.9,0.5,2.5,345.1,0.46,20.3,19.2
"23/06/09","09:00",0.0,21.0,97.0,999.3,315.8,1.7,4.0,329.1,0.95,20.5,19.4
"23/06/09","10:00",0.0,22.3,90.8,999.8,308.9,2.0,4.4,337.0,1.68,20.8,19.5
"23/06/09","11:00",0.0,23.4,80.8,999.6,283.5,2.0,4.3,251.0,1.51,20.0,19.6
"23/06/09","12:00",0.0,24.2,75.5,999.1,252.4,2.0,4.2,258.2,1.77,19.6,19.9
"23/06/09","13:00",0.0,24.9,75.6,998.9,201.1,2.6,4.9,232.0,1.56,20.3,20.1
"23/06/09","14:00",0.0,25.5,75.3,999.1,177.5,2.2,5.6,231.8,1.80,20.8,20.2
"23/06/09","15:00",0.0,26.2,71.3,998.4,156.7,1.0,4.1,236.9,1.57,20.6,20.5
"23/06/09","16:00",0.0,26.2,70.0,998.2,180.7,1.8,4.4,122.9,1.35,20.3,20.9
"23/06/09","17:00",0.0,26.3,68.0,998.2,168.7,2.1,4.2,210.9,1.28,20.0,20.9
"23/06/09","18:00",0.0,25.4,68.8,999.1,197.4,1.6,3.7,193.7,0.59,19.3,21.0
"23/06/09","19:00",0.0,24.4,75.6,999.8,344.4,1.0,2.8,229.1,0.18,19.9,21.0
"23/06/09","20:00",0.0,22.5,82.1,1001.0,314.2,1.6,2.1,335.7,0.00,19.3,21.1
"23/06/09","21:00",0.0,21.3,86.0,1002.2,283.8,1.6,2.5,322.1,0.00,18.9,20.8
"23/06/09","22:00",0.0,20.7,87.6,1002.9,297.2,1.0,2.5,327.0,0.00,18.6,20.7
"23/06/09","23:00",0.0,20.1,89.5,1002.9,295.3,1.2,2.0,340.4,0.00,18.4,20.7
"23/06/09","24:00",0.0,19.7,90.7,1003.4,295.3,1.0,2.5,330.9,0.00,18.2,20.5
"23/06/10","01:00",0.0,19.2,92.3,1003.6,302.3,1.1,1.8,336.0,0.00,18.0,20.4
"23/06/10","02:00",0.0,18.5,93.1,1003.8,297.5,1.1,2.0,316.7,0.00,17.4,20.2
"23/06/10","03:00",0.0,17.7,94.1,1004.3,316.4,1.1,2.0,318.4,0.00,16.8,20.2
"23/06/10","04:00",0.0,17.7,94.9,1004.5,314.1,1.5,2.0,309.8,0.00,16.9,20.0
"23/06/10","05:00",0.0,17.2,95.4,1004.5,313.5,1.2,2.0,315.7,0.00,16.5,19.5
"23/06/10","06:00",0.0,17.1,96.0,1005.5,281.0,1.1,1.4,322.8,0.00,16.5,19.5
"23/06/10","07:00",0.0,18.6,96.1,1005.5,314.5,0.8,1.8,318.7,0.16,18.0,19.3
"23/06/10","08:00",0.0,20.8,95.8,1005.7,291.9,0.8,2.1,333.9,0.51,20.1,19.4
"23/06/10","09:00",0.0,21.8,92.3,1005.5,293.4,1.0,2.2,347.0,0.91,20.5,19.2
"23/06/10","10:00",0.0,25.2,77.3,1004.1,339.5,0.8,1.8,11.1,1.43,21.0,19.7
"23/06/10","11:00",0.0,25.5,72.7,1003.8,116.3,0.5,2.4,215.4,1.17,20.3,19.8
"23/06/10","12:00",0.0,26.9,66.9,1004.1,94.3,0.6,3.4,153.8,1.16,20.3,20.0
"23/06/10","13:00",0.0,27.2,65.7,1004.1,144.5,1.0,2.4,129.1,1.33,20.3,20.1
"23/06/10","14:00",0.0,27.3,66.5,1003.8,143.6,0.8,1.9,27.5,1.13,20.6,20.3
"23/06/10","15:00",0.0,26.5,71.1,1002.6,163.2,1.6,4.1,190.4,1.13,20.9,20.7
"23/06/10","16:00",0.0,27.8,67.8,1003.4,161.4,1.5,3.7,190.6,1.36,21.3,20.8
"23/06/10","17:00",0.0,27.2,66.6,1003.6,203.7,1.3,3.2,218.3,0.97,20.5,20.9
"23/06/10","18:00",0.0,26.6,65.4,1003.8,263.8,1.5,3.7,237.2,0.49,19.6,21.2
"23/06/10","19:00",0.0,25.3,67.9,1003.8,301.7,1.1,3.2,247.3,0.11,19.0,21.2
"23/06/10","20:00",0.0,24.1,73.9,1005.5,338.5,1.5,3.1,350.2,0.00,19.2,21.0
"23/06/10","21:00",0.0,23.4,77.1,1004.8,316.1,1.1,2.6,328.6,0.00,19.2,20.9
"23/06/10","22:00",0.0,22.3,83.4,1006.0,321.6,1.8,3.1,313.5,0.00,19.4,20.9
"23/06/10","23:00",0.0,22.5,82.3,1006.2,317.6,0.8,3.7,338.3,0.00,19.4,20.7
"23/06/10","24:00",0.0,22.0,85.5,1005.7,322.2,0.6,1.6,312.7,0.00,19.5,20.7
"23/06/11","01:00",0.0,22.3,85.4,1006.2,166.7,1.1,2.8,131.1,0.00,19.8,20.7
"23/06/11","02:00",0.0,21.9,86.1,1005.7,28.9,0.3,2.1,132.7,0.00,19.5,20.3
"23/06/11","03:00",1.0,21.3,89.0,1005.7,326.4,1.1,1.4,129.1,0.00,19.5,20.4
"23/06/11","04:00",2.2,20.7,91.7,1006.0,322.4,0.8,1.3,336.9,0.00,19.3,20.4
"23/06/11","05:00",1.2,20.2,93.2,1005.0,327.3,0.6,1.3,340.6,0.00,19.1,20.4
"23/06/11","06:00",0.2,20.0,94.2,1004.8,333.3,0.7,1.7,342.7,0.00,19.1,20.3
"23/06/11","07:00",0.8,20.2,95.0,1004.8,284.7,0.8,1.7,343.1,0.00,19.4,20.4
"23/06/11","08:00",0.8,20.5,95.5,1005.2,270.8,0.7,1.4,312.4,0.12,19.8,20.2
"23/06/11","09:00",1.0,20.9,95.8,1005.0,277.1,0.5,1.4,254.5,0.26,20.2,20.2
"23/06/11","10:00",0.2,21.3,96.0,1005.2,257.8,0.8,1.4,264.2,0.36,20.7,20.2
"23/06/11","11:00",0.6,21.5,96.1,1005.2,339.4,1.1,2.2,342.8,0.36,20.9,20.3
"23/06/11","12:00",0.8,22.1,96.1,1004.5,139.0,0.5,2.4,105.1,0.53,21.5,20.6
"23/06/11","13:00",0.2,22.2,95.7,1004.5,306.0,1.5,2.6,325.0,1.09,21.5,20.3
"23/06/11","14:00",0.0,22.6,95.1,1005.0,329.4,1.3,2.4,332.2,0.59,21.8,20.6
"23/06/11","15:00",0.0,23.5,92.2,1003.4,302.1,0.6,2.0,194.2,0.95,22.2,20.6
"23/06/11","16:00",0.0,24.5,84.3,1002.9,331.1,0.6,2.2,313.4,0.64,21.7,20.7
"23/06/11","17:00",0.0,24.9,77.7,1002.4,167.5,0.6,2.4,328.7,0.64,20.8,20.7
"23/06/11","18:00",0.0,25.0,75.3,1002.9,228.7,0.5,2.6,228.2,0.49,20.4,20.9
"23/06/11","19:00",0.0,24.0,80.9,1003.4,12.5,0.7,2.0,344.4,0.15,20.6,21.0
"23/06/11","20:00",0.0,23.0,86.4,1003.6,335.4,0.6,2.1,354.0,0.00,20.6,21.2
"23/06/11","21:00",0.0,22.2,89.0,1004.1,316.7,1.5,2.1,325.3,0.00,20.3,21.0
"23/06/11","22:00",0.0,21.5,90.8,1003.4,297.8,0.5,2.2,332.5,0.00,20.0,20.8
"23/06/11","23:00",0.0,21.2,92.4,1004.3,301.7,1.0,2.6,329.4,0.00,20.0,20.7
"23/06/11","24:00",0.0,21.2,93.1,1004.5,329.3,1.0,1.9,322.0,0.00,20.1,20.8
"23/06/12","01:00",0.0,21.2,93.5,1003.8,314.6,1.7,2.5,324.0,0.00,20.1,20.7
"23/06/12","02:00",0.0,21.0,94.0,1003.4,262.3,0.7,1.9,323.5,0.00,20.0,20.7
"23/06/12","03:00",0.0,20.7,94.6,1003.4,288.3,0.7,2.1,329.0,0.00,19.8,20.6
"23/06/12","04:00",0.0,20.7,95.2,1002.4,302.8,0.6,1.6,306.9,0.00,19.9,20.7
"23/06/12","05:00",0.6,20.6,95.6,1002.4,334.0,1.8,3.7,340.7,0.00,19.9,20.4
"23/06/12","06:00",0.2,20.6,96.0,1002.6,345.9,0.8,2.7,313.2,0.00,20.0,20.4
"23/06/12","07:00",0.6,20.9,96.3,1002.9,329.4,0.8,1.6,313.2,0.04,20.3,20.5
"23/06/12","08:00",0.0,21.4,96.4,1003.1,262.6,1.1,2.1,260.0,0.29,20.8,20.4
"23/06/12","09:00",0.0,22.3,96.0,1003.4,243.5,0.6,1.8,326.0,0.42,21.7,20.5
"23/06/12","10:00",0.0,23.5,95.5,1003.1,264.4,1.0,2.4,344.3,1.20,22.8,20.6
"23/06/12","11:00",0.0,23.8,92.7,1001.9,150.5,0.8,2.1,263.2,0.85,22.6,20.7
"23/06/12","12:00",0.0,24.4,88.1,1001.7,34.9,0.5,2.1,200.5,0.41,22.3,20.7
"23/06/12","13:00",0.0,24.8,84.8,1001.0,11.1,0.7,1.8,133.1,0.41,22.1,20.9
"23/06/12","14:00",0.0,25.0,82.9,1000.0,58.5,0.5,1.8,161.5,0.51,21.9,20.9
"23/06/12","15:00",0.0,24.9,83.7,1000.0,94.0,0.5,2.8,350.3,0.33,22.0,21.1
"23/06/12","16:00",0.0,25.1,83.1,999.8,339.0,1.1,2.7,108.7,0.30,22.1,21.1
"23/06/12","17:00",0.0,24.9,81.6,999.6,139.2,0.7,3.1,198.5,0.31,21.6,21.0
"23/06/12","18:00",0.0,24.6,84.9,999.1,319.3,0.6,1.9,151.6,0.13,21.9,21.2
"23/06/12","19:00",0.0,23.7,85.4,999.3,53.6,0.6,1.7,344.3,0.00,21.1,21.2
"23/06/12","20:00",0.0,22.9,87.4,999.6,317.4,1.5,2.6,317.0,0.00,20.7,21.1
"23/06/12","21:00",0.0,22.1,90.0,999.3,310.6,1.1,3.1,348.9,0.00,20.4,21.0
"23/06/12","22:00",0.0,21.6,91.3,998.9,336.1,0.3,2.0,312.3,0.00,20.2,20.9
"23/06/12","23:00",0.0,21.5,91.6,999.1,299.5,1.3,4.5,337.8,0.00,20.1,21.0
"23/06/12","24:00",0.0,21.0,91.9,999.1,321.1,1.3,2.6,330.2,0.00,19.7,20.7
"23/06/13","01:00",0.0,21.0,91.8,999.1,333.7,2.0,3.5,344.9,0.00,19.7,20.7
"23/06/13","02:00",0.0,20.4,92.3,999.3,321.2,1.3,2.7,310.2,0.00,19.1,20.6
"23/06/13","03:00",0.0,20.4,93.3,998.9,328.4,1.5,2.7,307.8,0.00,19.3,20.6
"23/06/13","04:00",0.0,19.7,94.0,999.3,313.6,1.0,1.9,322.6,0.00,18.7,20.5
"23/06/13","05:00",0.0,19.2,94.7,999.3,304.2,1.1,1.4,324.3,0.00,18.4,20.2
"23/06/13","06:00",0.0,19.5,95.3,999.3,301.3,1.1,1.8,318.9,0.00,18.8,20.3
"23/06/13","07:00",0.0,20.5,95.6,1000.0,319.5,1.1,1.8,341.7,0.05,19.8,20.3
"23/06/13","08:00",0.0,23.4,94.5,1000.8,6.3,0.6,1.4,317.0,0.61,22.5,20.1
"23/06/13","09:00",0.0,25.1,85.2,999.1,126.8,1.0,2.5,109.7,1.33,22.5,20.3
"23/06/13","10:00",0.2,25.6,77.4,999.3,219.0,0.7,4.0,223.8,1.52,21.4,20.5
"23/06/13","11:00",0.0,26.3,78.8,998.4,150.1,0.8,3.9,239.6,1.27,22.4,20.7
"23/06/13","12:00",0.0,27.9,74.8,998.4,154.3,1.1,2.7,195.1,1.36,23.1,21.1
"23/06/13","13:00",0.0,29.1,67.4,999.3,164.0,2.0,4.4,210.4,3.10,22.5,21.3
"23/06/13","14:00",0.0,29.3,65.9,998.6,178.9,2.1,5.1,232.6,2.82,22.3,21.6
"23/06/13","15:00",0.0,28.8,66.7,997.4,170.1,2.3,6.3,217.8,1.62,22.0,21.8
"23/06/13","16:00",0.0,28.9,64.9,997.4,183.2,2.7,4.9,213.0,1.25,21.7,22.0
"23/06/13","17:00",0.0,28.0,67.5,997.2,184.3,2.1,5.5,221.9,0.76,21.5,22.0
"23/06/13","18:00",0.0,26.7,71.5,997.9,355.7,1.1,4.1,339.1,0.29,21.2,21.9
"23/06/13","19:00",0.0,24.6,75.4,999.1,345.7,2.5,5.4,344.1,0.14,20.0,22.3
"23/06/13","20:00",0.0,24.0,78.6,999.3,340.8,1.3,3.5,334.3,0.01,20.1,22.1
"23/06/13","21:00",0.0,23.1,82.2,999.3,341.2,1.3,3.7,333.3,0.00,19.9,22.1
"23/06/13","22:00",0.0,22.5,84.1,1000.0,317.0,1.6,4.0,342.2,0.00,19.7,21.8
"23/06/13","23:00",0.0,22.7,84.6,1000.3,328.1,2.2,5.0,340.9,0.00,20.0,21.7
"23/06/13","24:00",0.0,22.2,86.3,999.8,318.7,1.7,3.6,350.7,0.00,19.8,21.3
"23/06/14","01:00",0.0,22.1,87.1,999.8,320.8,2.2,3.6,326.6,0.00,19.9,21.4
"23/06/14","02:00",0.0,21.8,87.9,999.3,324.0,1.3,3.3,329.5,0.00,19.7,21.2
"23/06/14","03:00",0.2,21.4,90.0,999.6,306.6,1.0,2.5,329.1,0.00,19.7,21.2
"23/06/14","04:00",0.4,21.1,92.3,999.8,322.1,0.8,2.5,328.6,0.00,19.8,21.2